When you browse on this site, cookies collect data to enhance your experience and personalize the content and advertising you see.
Visit our Privacy Policy to learn more. By continuing to use the site, you agree to this use of cookies and data.
  • In Netherlands
  • List of Countries
  • For 7 days
  • Water Temperature
  • Weather Map
  • Weather Widgets
  • user-avatar
    Login

    Hourly Weather Iraki

    Today, 17 February, Monday

    Time Temperature Precipitation Wind Pressure Humidity
    00:00 -3°C° 0 mm 1 mps 673 mmHg 86%
    01:00 -3°C° 0 mm 1 mps 673 mmHg 83%
    02:00 -3°C° 0 mm 1 mps 672 mmHg 80%
    03:00 -4°C° 0 mm 1 mps 672 mmHg 77%
    04:00 -4°C° 0 mm 1 mps 672 mmHg 76%
    05:00 -4°C° 0 mm 1 mps 672 mmHg 75%
    06:00 -4°C° 0 mm 1 mps 672 mmHg 74%
    07:00 -3°C° 0 mm 1 mps 673 mmHg 76%
    08:00 -3°C° 0 mm 1 mps 673 mmHg 79%
    09:00 -4°C° 0 mm 2 mps 674 mmHg 81%
    10:00 -3°C° 0 mm 2 mps 674 mmHg 80%
    11:00 -2°C° 0 mm 3 mps 674 mmHg 79%
    12:00 -1°C° 0 mm 3 mps 674 mmHg 78%
    13:00 -1°C° 0 mm 3 mps 674 mmHg 80%
    14:00 -2°C° 0 mm 3 mps 673 mmHg 82%
    15:00 -2°C° 0 mm 3 mps 673 mmHg 85%
    16:00 -2°C° 0 mm 3 mps 673 mmHg 87%
    17:00 -3°C° 0 mm 2 mps 673 mmHg 89%
    18:00 -3°C° 0 mm 2 mps 673 mmHg 91%
    19:00 -4°C° 0 mm 2 mps 673 mmHg 90%
    20:00 -4°C° 0 mm 2 mps 673 mmHg 88%
    21:00 -4°C° 0 mm 2 mps 673 mmHg 86%
    22:00 -5°C° 0 mm 2 mps 673 mmHg 84%
    23:00 -5°C° 0 mm 2 mps 673 mmHg 82%

    Tomorrow, 18 February, Tuesday

    Time Temperature Precipitation Wind Pressure Humidity
    00:00 -5°C° 0 mm 2 mps 672 mmHg 80%
    01:00 -5°C° 0 mm 2 mps 672 mmHg 76%
    02:00 -5°C° 0 mm 2 mps 672 mmHg 71%
    03:00 -2°C° 0 mm 1 mps 672 mmHg 66%
    04:00 -2°C° 0 mm 1 mps 671 mmHg 65%
    05:00 -4°C° 0 mm 2 mps 671 mmHg 64%
    06:00 -4°C° 0 mm 2 mps 671 mmHg 62%
    07:00 -3°C° 0 mm 2 mps 671 mmHg 63%
    08:00 -1°C° 0 mm 2 mps 672 mmHg 64%
    09:00 +1°C° 0 mm 2 mps 672 mmHg 65%
    10:00 +2°C° 0 mm 2 mps 672 mmHg 68%
    11:00 +2°C° 0 mm 2 mps 671 mmHg 72%
    12:00 +3°C° 0 mm 2 mps 671 mmHg 75%
    13:00 +3°C° 0 mm 2 mps 671 mmHg 76%
    14:00 +3°C° 0 mm 2 mps 670 mmHg 77%
    15:00 +4°C° 0 mm 1 mps 670 mmHg 79%
    16:00 +4°C° 0 mm 1 mps 669 mmHg 76%
    17:00 +2°C° 0 mm 2 mps 669 mmHg 74%
    18:00 +1°C° 0 mm 2 mps 669 mmHg 72%
    19:00 +2°C° 0 mm 2 mps 668 mmHg 67%
    20:00 +2°C° 0 mm 2 mps 668 mmHg 61%
    21:00 +2°C° 0 mm 2 mps 668 mmHg 56%
    22:00 +2°C° 0 mm 2 mps 668 mmHg 53%
    23:00 +2°C° 0 mm 2 mps 667 mmHg 51%

    Day after tomorrow, 19 February, Wednesday

    Time Temperature Precipitation Wind Pressure Humidity
    00:00 +1°C° 0 mm 2 mps 667 mmHg 48%
    01:00 +1°C° 0 mm 2 mps 666 mmHg 48%
    02:00 +1°C° 0 mm 2 mps 666 mmHg 49%
    03:00 +1°C° 0 mm 2 mps 665 mmHg 49%
    04:00 +1°C° 0 mm 2 mps 665 mmHg 48%
    05:00 +1°C° 0 mm 2 mps 665 mmHg 46%
    06:00 +1°C° 0 mm 2 mps 665 mmHg 45%
    07:00 +3°C° 0 mm 1 mps 665 mmHg 49%
    08:00 +4°C° 0 mm 1 mps 665 mmHg 54%
    09:00 +5°C° 0 mm 1 mps 666 mmHg 58%
    10:00 +5°C° 0 mm 1 mps 666 mmHg 63%
    11:00 +6°C° 0 mm 1 mps 666 mmHg 68%
    12:00 +7°C° 0 mm 1 mps 666 mmHg 72%
    13:00 +6°C° 0 mm 1 mps 665 mmHg 73%
    14:00 +6°C° 0 mm 1 mps 665 mmHg 74%
    15:00 +6°C° 0 mm 1 mps 665 mmHg 75%
    16:00 +5°C° 0 mm 1 mps 665 mmHg 74%
    17:00 +4°C° 0 mm 1 mps 665 mmHg 73%
    18:00 +3°C° 0 mm 1 mps 664 mmHg 72%
    19:00 +3°C° 0 mm 1 mps 664 mmHg 69%
    20:00 +3°C° 0 mm 1 mps 664 mmHg 66%
    21:00 +3°C° 0 mm 1 mps 664 mmHg 64%
    22:00 +2°C° 0 mm 1 mps 664 mmHg 62%
    23:00 +2°C° 0 mm 1 mps 664 mmHg 61%

    20 February, Thursday

    Time Temperature Precipitation Wind Pressure Humidity
    00:00 +2°C° 0 mm 1 mps 664 mmHg 60%
    01:00 +2°C° 0 mm 1 mps 663 mmHg 60%
    02:00 +2°C° 0 mm 1 mps 663 mmHg 61%
    03:00 +1°C° 0 mm 1 mps 663 mmHg 61%
    04:00 +1°C° 0 mm 1 mps 663 mmHg 60%
    05:00 +1°C° 0 mm 1 mps 663 mmHg 59%
    06:00 +1°C° 0 mm 1 mps 663 mmHg 59%
    07:00 +2°C° 0 mm 1 mps 663 mmHg 60%
    08:00 +3°C° 0 mm 1 mps 663 mmHg 62%
    09:00 +3°C° 0 mm 0 mps 664 mmHg 64%
    10:00 +4°C° 0 mm 1 mps 664 mmHg 66%
    11:00 +4°C° 0 mm 1 mps 664 mmHg 67%
    12:00 +5°C° 0 mm 1 mps 664 mmHg 69%
    13:00 +5°C° 0 mm 1 mps 663 mmHg 70%
    14:00 +5°C° 0 mm 1 mps 663 mmHg 72%
    15:00 +4°C° 0 mm 1 mps 662 mmHg 73%
    16:00 +3°C° 0 mm 1 mps 662 mmHg 77%
    17:00 +2°C° 0 mm 1 mps 662 mmHg 81%
    18:00 0°C° 0 mm 0 mps 662 mmHg 84%
    19:00 0°C° 0 mm 0 mps 662 mmHg 84%
    20:00 0°C° 0 mm 0 mps 662 mmHg 83%
    21:00 0°C° 0 mm 0 mps 662 mmHg 82%
    22:00 -1°C° 0 mm 0 mps 662 mmHg 81%
    23:00 -1°C° 0 mm 0 mps 661 mmHg 81%

    21 February, Friday

    Time Temperature Precipitation Wind Pressure Humidity
    00:00 -1°C° 0 mm 0 mps 661 mmHg 80%
    01:00 0°C° 0 mm 1 mps 661 mmHg 78%
    02:00 0°C° 0 mm 1 mps 661 mmHg 76%
    03:00 0°C° 0 mm 1 mps 661 mmHg 75%
    04:00 0°C° 0 mm 1 mps 661 mmHg 76%
    05:00 -1°C° 0 mm 0 mps 661 mmHg 77%
    06:00 -2°C° 0 mm 0 mps 661 mmHg 78%
    07:00 -1°C° 0 mm 0 mps 661 mmHg 78%
    08:00 0°C° 0 mm 0 mps 662 mmHg 79%
    09:00 +1°C° 0 mm 1 mps 662 mmHg 80%
    16:00 +2°C° 0 mm 1 mps 662 mmHg 90%
    17:00 +1°C° 0 mm 1 mps 662 mmHg 91%
    18:00 0°C° 0 mm 1 mps 662 mmHg 92%
    19:00 0°C° 0 mm 1 mps 662 mmHg 90%
    20:00 0°C° 0 mm 1 mps 663 mmHg 88%
    21:00 0°C° 0 mm 1 mps 663 mmHg 86%
    22:00 0°C° 0 mm 1 mps 663 mmHg 85%
    23:00 0°C° 0 mm 1 mps 663 mmHg 83%

    22 February, Saturday

    Time Temperature Precipitation Wind Pressure Humidity
    00:00 0°C° 0 mm 1 mps 663 mmHg 82%
    01:00 0°C° 0 mm 1 mps 663 mmHg 81%
    02:00 -1°C° 0 mm 1 mps 663 mmHg 81%
    03:00 -1°C° 0 mm 1 mps 663 mmHg 80%
    04:00 -1°C° 0 mm 1 mps 664 mmHg 79%
    05:00 -1°C° 0 mm 1 mps 664 mmHg 78%
    06:00 -1°C° 0 mm 1 mps 664 mmHg 76%
    07:00 0°C° 0 mm 1 mps 665 mmHg 75%
    08:00 +1°C° 0 mm 1 mps 665 mmHg 73%
    09:00 +2°C° 0 mm 1 mps 665 mmHg 71%
    10:00 +3°C° 0 mm 1 mps 665 mmHg 72%
    11:00 +3°C° 0 mm 1 mps 665 mmHg 73%
    12:00 +3°C° 0 mm 2 mps 665 mmHg 74%
    13:00 +3°C° 0 mm 2 mps 665 mmHg 77%
    14:00 +2°C° 0 mm 2 mps 665 mmHg 80%
    15:00 +2°C° 0 mm 2 mps 664 mmHg 83%
    16:00 +2°C° 0 mm 1 mps 664 mmHg 85%
    17:00 +2°C° 0 mm 1 mps 664 mmHg 88%
    18:00 +1°C° 0 mm 1 mps 664 mmHg 91%
    19:00 0°C° 0 mm 0 mps 665 mmHg 91%
    20:00 0°C° 0 mm 0 mps 665 mmHg 90%
    21:00 0°C° 0 mm 0 mps 665 mmHg 90%
    22:00 0°C° 0 mm 0 mps 665 mmHg 91%
    23:00 -1°C° 0 mm 0 mps 665 mmHg 91%
    Show more